{"data":{"norad_id":56808,"epoch":"2026-09-20T22:34:40.802592Z","epoch_age_seconds":79354,"freshness":"FRESH","line1":"1 56808U 23078AT  26263.94075003 -.00000252  00000+0 -13289-4 0  9991","line2":"2 56808  69.9988 142.2422 0002821 270.1077  89.9758 14.98328772183663","mean_motion":14.98328772,"eccentricity":0.0002821,"inclination_deg":69.9988,"raan_deg":142.2422,"arg_perigee_deg":270.1077,"mean_anomaly_deg":89.9758,"bstar":-1.3289e-5,"rev_number":18366,"period_min":96.107077893049,"perigee_km":570.0990379499,"apogee_km":574.02033892152,"semimajor_km":6950.1966884357,"source":"CELESTRAK","updated_at":"2026-09-21T09:00:33.512052Z"}}